Yuzhno-Sakhalinsk Airport
UHSS : now visible

Airfield :











YOU CAN JOIN US ON...

 
LOGIN :

Register | Disclaimer

   EN    FR    IT 

 









Legend :    VFR   Marginal VFR   IFR   Intensive IFR   Very Intensive IFR
Visi :
Ceiling :
>= 8 km
>= 3000ft
5 to 8 km
1000 to 3000 ft
1500m to 5 km
500 to 1000 ft
800 to 1500m
200 to 500 ft
< 800m
< 200 ft
Symbols :   Thunderstorms  Fog  Heavy snow  Heavy precipitations  Wind > 20 kt






- Airport Elevation : 59 ft
- IATA code : UUS


UHSS - Yuzhno-Sakhalinsk

CURRENT METAR :
  • 210830Z 02004MPS 9999 BKN040CB 13/10 Q1019 R01/70D NOSIG RMK QFE763/1017

EXPIRED METARs :
  • 210800Z 03004MPS 9999 BKN033CB 13/10 Q1018 R01/CLRD70 NOSIG RMK MT OBSC QFE762/1017
  • 210730Z 05005MPS 9999 BKN026CB 13/10 Q1018 R01/70D NOSIG RMK MT OBSC QFE762/1017
  • 210700Z 04003MPS 9999 BKN033CB 14/10 Q1018 R01/70D NOSIG RMK MT OBSC QFE762/1016
  • 210630Z 03006MPS 9999 BKN032CB 14/10 Q1018 R01/CLRD70 NOSIG RMK MT OBSC QFE762/1016

TAF TAF UHSS
Valid from the 21 at 09:00 until the 22 at 15:00 UTC


210735Z 2109/2215 36003MPS 9999 BKN030CB
UHSS FIR / Asia



MET'MAP, your aeronautical weather chart ! - Copyright ORBIFLY December 2007 - Disclaimer

ORBIFLY MET'MAP TEAM :

Programming & Development : Alexandra Zaïnal
Concept & original design : Baudouin d'Aumeries
Assistance for programming : Marc-Olivier Méhu
Technical & hardware support : Manuel Goepfert

Contact : metmap@orbifly.com




SOURCES & CREDITS :

   NOAA       Earth
Advisory